Atlantic - Newfoundland: Past 24 Hour Conditions

 

Port aux Basques

06:30 PM NDT 30 June 2015
Disclaimer

This table is a summary of hourly weather conditions for the past 24 hours.
Please note that these observations might not always be representative of weather conditions over their associated marine area.

Date / Time
(NDT)
Wind(knots) Conditions Visibility(km) Pressure(kPa) Air tempC) Relative humidity(%) Dew pointC)
30 June 2015
18:30 W 12 Cloudy 15 101.5 13 93 11
17:30 W 14 Mainly Sunny 15 101.5 14 90 12
16:30 W 14 Cloudy 15 101.5 13 94 12
15:30 W 17 Cloudy 15 101.5 13 91 12
14:30 WSW 11 Cloudy 15 101.5 13 92 12
13:30 WSW 17 Cloudy 15 101.4 14 93 13
12:30 SW 5 Cloudy 15 101.4 13 96 13
11:30 SSE 3 Cloudy 10 101.4 12 100 12
10:30 E 4 Cloudy 6 101.4 11 100 11
9:30 ENE 3 Partly Cloudy 2 101.4 11 100 11
8:30 ESE 4 Cloudy 2 101.3 10 100 10
7:30 E 4 Cloudy 0.8 101.3 10 100 10
6:30 E 3 Drizzle 0.6 101.3 10 100 10
5:30 E 7 Light Drizzle 2 101.3 10 100 10
4:30 E 10 Cloudy 2 101.2 10 100 10
3:30 E 8 Cloudy 1 101.2 10 100 10
2:30 E 9 Cloudy 4 101.2 10 100 10
1:30 E 9 Cloudy 2 101.1 10 100 10
0:30 ENE 11 Light Drizzle 3 101.1 10 100 10
29 June 2015
23:30 E 12 Cloudy 4 101.1 10 100 10
22:30 E 13 gust 19 Cloudy 3 101.1 10 100 10
21:30 E 17 gust 22 Cloudy 3 101.1 10 100 10
20:30 E 20 gust 25 Light Rain 1 101.1 10 100 10
19:30 E 22 gust 31 Cloudy 2 101.0 10 100 10
18:30 E 26 gust 34 Light Rain 2 101.1 10 100 10

Zoom-in to make a selection

Map of Atlantic - Newfoundland marine weather areas Southwestern Grand Banks - 44138 Banquereau - 44139 Tail of the Bank - 44140 Nickerson Bank - 44251 Northeast Burgeo Bank - 44255 Blanc-Sablon Airport Cap Whittle Chevery Natashquan Airport Heath Point Miscou Island Grand Étang Ingonish Beach North Mountain St.Paul Island J.A. Douglas McCurdy Sydney Airport Charlottetown Airport East Point North Cape Argentia Bonavista Burgeo Cape Race Corner Brook Daniel's Harbour Englee Ferolle Point La Scie Port aux Basques Rocky Harbour Sagona Island St. Anthony Airport St. John's Int'l Airport St. Lawrence Stephenville Airport Twillingate Winterland Wreckhouse Cartwright Airport Mary's Harbour Grates Cove Pool's Island Marticot Island Long Pond Eskasoni (First Nations) Îles de la Madeleine Airport
Legend:
buoy Buoy
land station Land Station

Atlantic - Newfoundland Area

Another Region

What we are doing

Date modified: